Location: �clusier
(49.9361°N, 2.7869°E)
Time: 17:06:31
(UTC+00:00)

NOAA 13 - Pass Details

Date: 06 February 2022
Orbit: 842 x 857 km, 98.5° (Epoch: 19 May)

Event Time Altitude Azimuth Distance (km) Brightness Sun altitude
Rises 05:40:03 0° 9° (N) 3,431 7.9 -15.5°
Reaches altitude 10° 05:42:32 10° 3° (N) 2,494 7.1 -15.1°
Maximum altitude 05:47:39 40° 295° (WNW) 1,238 5.1 -14.3°
Drops below altitude 10° 05:52:46 10° 228° (SW) 2,487 6.8 -13.5°
Sets 05:55:15 0° 221° (SW) 3,420 7.5 -13.1°
